Regional Weather Roundup
Issued by NWS

Home | Current Version | Previous Version | Text Only | Print | Product List | Glossary On
Versions: 1 2 3 4 5 6 7 8 9 10 11 12 13 14 15 16 17 18 19 20 21 22 23 24 25 26 27 28 29 30 31 32 33 34 35 36 37 38 39 40 41 42 43 44 45 46 47 48 49 50
000
ASUS43 KLMK 251002
RWRKY
KENTUCKY REGIONAL WEATHER ROUNDUP
NATIONAL WEATHER SERVICE LOUISVILLE KY
600 AM EDT SAT MAR 25 2017

NOTE "FAIR" INDICATES FEW OR NO CLOUDS BELOW 12,000 FEET
WITH NO SIGNIFICANT WEATHER AND/OR OBSTRUCTIONS TO VISIBILITY.

KYZ001>023-026-027-061>063-070>075-251100-
WESTERN AND SOUTH CENTRAL KENTUCKY

CITY           SKY/WX    TMP DP  RH WIND       PRES   REMARKS
PADUCAH        LGT RAIN  56  52  86 SE6       29.98F
HENDERSON      CLOUDY    64  52  63 S17G24    29.95S
OWENSBORO      CLOUDY    63  53  70 S13       30.01R
HOPKINSVILLE   MOCLDY    67  55  66 S13G21    30.01S
BOWLING GREEN  CLOUDY    67  50  54 S17G26    30.06S
GLASGOW        NOT AVBL
$$

KYZ024-025-028>034-038-045-046-053-251100-
NORTH CENTRAL KENTUCKY

CITY           SKY/WX    TMP DP  RH WIND       PRES   REMARKS
LOUISVILLE/SDF PTCLDY    60  47  61 SE10      30.06S
LOUISVILLE/LOU MOCLDY    62  48  60 SE6       30.07S
FORT KNOX      PTCLDY    60  49  65 SE12      30.05R
$$

KYZ035>037-039>044-047>052-055>060-089>105-251100-
NORTHEAST KENTUCKY

CITY           SKY/WX    TMP DP  RH WIND       PRES   REMARKS
LEXINGTON      PTCLDY    58  46  64 SE10      30.12F
COVINGTON      CLOUDY    58  50  75 S10       30.10S
FRANKFORT      MOCLDY    58  47  66 SE7       30.10S
$$

KYZ054-064>069-076>088-106>120-251100-
SOUTHEAST KENTUCKY

CITY           SKY/WX    TMP DP  RH WIND       PRES   REMARKS
JACKSON        CLOUDY    61  46  57 VRB3      30.18S
LONDON         CLOUDY    58  45  62 SE3       30.17S
SOMERSET       NOT AVBL
MIDDLESBORO    MOCLDY    51  48  89 CALM      30.22R
MONTICELLO     MOSUNNY   62  48  60 SE14G23   30.14F
$$





USA.gov is the U.S. government's official web portal to all federal, state and local government web resources and services.